STARLINK-1691 (46373 NORAD) Tracking and Keplerian Element Data

This shows tracking and keplerian element data for the satellite.

Feedback or suggestion? Click here.




ElementValue
Catalog46373
NameSTARLINK-1691
Epoch Orbit1512
Epoch Day339.00002315
Epoch Year2020
RAAN343.6732
Inclination53.0016
Eccentricity0.0001493
Argument of Perigee65.5609
Mean Anonmoly79.2637
Mean Motion15.19693914
Decay Rate-0.01054881
L11 46373U 20062BA 20339.00002315 -.01054881 00000-0 -53274-1 0 9992
L22 46373 53.0016 343.6732 0001493 65.5609 79.2637 15.19693914 15127

Live tracking and technical data element details for STARLINK-1691 (NORAD 46373). STARLINK-1691 can be tracked NOW for your location showing map with azimuth and elevation plus other details from your city location.

Track the satellite on the map from your city or location and see movement details for azimuth, elevation, latitude, longitude, range, height, and movement on the map or in text.







IsCatalogInMostPopularTable: catalog: 46373, numindb: 27
Update: records affected: 1



GetName: 46373 STARLINK-1691

Hit Count: updated at: Sun, 06 Dec 2020 01:11:20 GMT